Location: Unspecified
(0.0000°N, 0.0000°E)
Time: 16:54:42
(UTC+00:00)

FW4S - Visible Passes

Search period start: 15 May 2026 00:00
Search period end: 25 May 2026 00:00
Orbit: 639 x 4631 km, 40.9° (Epoch: 15 May)

Date Brightness Start Highest point End Pass type
(mag) Time Alt. Az. Time Alt. Az. Time Alt. Az.
15 May 10.3 02:08:26 10° NNW 02:31:28 41° NNE 02:44:25 10° E visible
15 May 8.7 04:46:43 10° NW 05:05:53 67° SW 05:14:54 10° SE visible
15 May 11.5 20:18:49 10° NW 20:31:34 19° NNW 20:48:26 10° NNE visible
15 May 11.5 23:06:54 10° NNW 23:23:18 17° NNE 23:38:02 10° NE visible
16 May 10.4 01:44:50 10° NNW 02:08:21 39° NNE 02:22:04 10° E visible
16 May 8.7 04:22:56 10° NW 04:43:30 74° SW 04:53:07 10° SE visible
16 May 11.4 19:55:48 10° WNW 20:07:58 19° NNW 20:24:35 10° NNE visible
16 May 11.5 22:43:22 10° NNW 22:59:14 17° NNE 23:14:05 10° NE visible
17 May 10.5 01:21:16 10° NNW 01:45:09 38° NNE 01:59:37 10° E visible
17 May 8.8 03:59:09 10° NW 04:21:02 79° SW 04:31:17 10° SE visible
17 May 11.4 19:32:54 10° WNW 19:44:28 19° NNW 20:00:43 10° NNE visible
17 May 11.5 22:19:55 10° NNW 22:35:07 16° N 22:49:56 10° NE visible
18 May 10.6 00:57:44 10° NNW 01:21:51 36° NNE 01:37:06 10° E visible
18 May 9.0 03:35:22 10° NW 03:58:28 85° SW 04:09:24 10° SE visible
18 May 11.3 19:10:07 10° WNW 19:21:05 20° NNW 19:36:53 10° NNE visible
18 May 11.5 21:56:34 10° NNW 22:10:58 16° N 22:25:35 10° NE visible
19 May 10.7 00:34:15 10° NNW 00:58:28 35° NNE 01:14:27 10° E visible
19 May 9.1 03:11:34 10° NW 03:35:49 90° WSW 03:47:29 10° SE visible
19 May 11.3 18:47:26 10° WNW 18:57:49 20° NNW 19:13:04 10° NNE visible
19 May 11.6 21:33:20 10° NNW 21:46:49 15° N 22:01:02 10° NE visible
20 May 10.8 00:10:49 10° NNW 00:35:00 33° NNE 00:51:43 10° E visible
20 May 9.2 02:47:48 10° NW 03:13:06 86° NE 03:25:30 10° SE visible
20 May 9.5 05:32:15 10° W 05:44:07 23° SW 05:51:32 10° S visible
20 May 11.2 18:24:52 10° WNW 18:34:38 20° NNW 18:49:17 10° NNE visible
20 May 11.6 21:10:12 10° NNW 21:22:41 15° N 21:36:16 10° NE visible
20 May 10.8 23:47:27 10° NNW 00:11:27 32° NNE 00:28:51 10° E visible
21 May 9.3 02:24:04 10° NW 02:50:17 81° NE 03:03:29 10° SE visible
21 May 9.4 05:07:49 10° WNW 05:21:48 27° SW 05:30:08 10° S visible
21 May 11.2 18:02:22 10° WNW 18:11:34 20° NNW 18:25:35 10° NNE visible
21 May 11.6 20:47:12 10° NNW 20:58:35 14° N 21:11:22 10° NE visible
21 May 10.9 23:24:10 10° NNW 23:47:50 31° NNE 00:05:51 10° E visible
22 May 9.5 02:00:22 10° NW 02:27:20 77° NE 02:41:24 10° SE visible
22 May 9.4 04:43:25 10° WNW 04:59:27 31° SW 05:08:38 10° S visible
22 May 11.6 20:24:20 10° NNW 20:34:34 13° N 20:46:17 10° NNE visible
22 May 11.0 23:00:58 10° NNW 23:24:09 29° NNE 23:42:42 10° E visible
23 May 9.6 01:36:44 10° NW 02:04:20 73° NE 02:19:15 10° SE visible
23 May 9.4 04:19:04 10° WNW 04:37:04 35° SW 04:47:04 10° SSE visible
23 May 11.6 20:01:35 10° NNW 20:10:37 13° N 20:21:05 10° NNE visible
23 May 11.1 22:37:52 10° NNW 23:00:24 28° NNE 23:19:22 10° E visible
24 May 9.7 01:13:09 10° NW 01:41:13 70° NE 01:57:03 10° ESE visible
24 May 9.4 03:54:46 10° WNW 04:14:35 39° SW 04:25:24 10° SSE visible
24 May 11.6 19:39:00 10° NNW 19:46:45 12° N 19:55:46 10° NNE visible
24 May 11.1 22:14:51 10° NNW 22:36:36 26° NNE 22:53:29 14° ENE visible
